Location: B�hl
(48.6968°N, 8.1352°E)
Time: 15:49:36
(UTC+00:00)

CZ-4B R/B - Pass Details

Date: 08 March 2021
Orbit: 388 x 454 km, 97.6° (Epoch: 20 April)

Event Time Altitude Azimuth Distance (km) Brightness Sun altitude
Rises 18:03:12 0° 9° (N) 2,304 4.9 -7.6°
Reaches altitude 10° 18:05:11 10° 5° (N) 1,448 4.0 -7.9°
Maximum altitude 18:08:12 55° 287° (WNW) 491 2.0 -8.4°
Drops below altitude 10° 18:11:15 10° 208° (SSW) 1,461 4.3 -8.9°
Sets 18:13:16 0° 204° (SSW) 2,327 5.3 -9.2°
